星链-35896(STARLINK-35896)

导读

STARLINK-35896是美国于2025年12月31日发射的星链系列低轨通信卫星,隶属于SpaceX公司的星链项目。星链项目旨在构建全球卫星互联网星座,为全球用户提供高速低延迟的宽带服务。该卫星的成功发射进一步扩充了星链星座的规模,推动了全球覆盖网络的建设进程,为后续全球卫星互联网服务的完善奠定了基础。

基本信息
目录编号:
66824
目录名称:
STARLINK-35896
国际标识:
2025-280D
轨道中心:
EARTH
卫星名称:
星链-35896
卫星全名:
星链-35896(STARLINK-35896)
卫星状态:
在轨 (已飞行277 天)
发射日期:
2025-12-02 UTC
国别 :
美国 (US)
星等 :
--
轨道信息
数据来源 国际轨道数据 AOE轨道数据
星历时间 2026-09-05T01:45:04+0800
9小时前
查看轨道信息
2026-09-01T02:00:00+0800
4天前
查看轨道信息
半长轴 6950.181km 6950.214km
偏心率 0.0003886 0.0003551
轨道倾角 70.000° 69.999°
近地点辐角 265.722° 277.851°
升交点赤经 243.098° 253.159°
平近点角 94.349° 168.310°
近地点 569.343km 569.608km
远地点 574.745km 574.546km
周期 96.107分钟 96.107分钟
每日圈数 14.98334 14.983232
详细信息
固有亮度:
5
最大亮度:
2.5
卫星平台:
Starlink V1.0
覆盖范围:
全球
运营商:
太空探索技术公司
运营商所在国:
美国
制造商(研发单位):
太空探索技术公司
制造商所在国:
美国
使用方式:
暂无
卫星简介
Starlink 计划是 SpaceX 推出的全球卫星互联网项目,通过发射低轨道卫星,为全球尤其是偏远地区提供高速、低延迟的互联网服务。自 2019 年起,Starlink 已部署数千颗卫星,旨在缩小全球数字鸿沟,推动互联网普及。该项目还为军事、航空等行业提供通信支持,带来广泛经济效益。
2D轨道图
3D轨道图
轨道高度分析图
轨道倾角分析图
轨道综合分析图
查看轨道综合分析图